Location: *
(49.3500°N, 12.6000°E)
Time: 10:16:11
(UTC+00:00)

STARLINK-49 - Pass Details

Date: 18 October 2019
Orbit: 549 x 551 km, 53.0° (Epoch: 18 November)

Event Time Altitude Azimuth Distance (km) Brightness Sun altitude
Rises 18:10:54 0° 273° (W) 2,717 8.8 -19.7°
Reaches altitude 10° 18:13:11 10° 278° (W) 1,824 7.5 -20.1°
Maximum altitude 18:17:14 51° 355° (N) 699 4.1 -20.7°
Enters shadow 18:18:04 43° 35° (NE) 780 4.1 -20.9°
